Weather reports worldwide

Advertisment
Trawscoed, United Kingdom (3503): temperature & dewpoint: 16.11.2017 05:00:00 - 22.11.2017 05:00:00 (GMT)Trawscoed, United Kingdom (3503): wind speed: 16.11.2017 05:00:00 - 22.11.2017 05:00:00 (GMT)Trawscoed, United Kingdom (3503): wind direction: 16.11.2017 05:00:00 - 22.11.2017 05:00:00 (GMT)Trawscoed, United Kingdom (3503): reduced air pressure: 16.11.2017 05:00:00 - 22.11.2017 05:00:00 (GMT)Trawscoed, United Kingdom (3503): visibility: 16.11.2017 05:00:00 - 22.11.2017 05:00:00 (GMT)Trawscoed, United Kingdom (3503): precipitation: 16.11.2017 05:00:00 - 22.11.2017 05:00:00 (GMT)
Date & Time tt [°C] td [°C] ff [km/h] ff [kn] dd ppp [hPa] vv [km] rr [mm]
22.11.2017 05:00:00 13,3 11,9 16 9 S 996,4 8 0,4
22.11.2017 04:00:00 13,2 11,4 13 7 S 997,6 15 0,2
22.11.2017 03:00:00 13,7 12,7 16 9 SSW 998,0 3,4 0,0
22.11.2017 02:00:00 13,9 12,8 15 8 S 998,5 7 0,2
22.11.2017 01:00:00 13,5 12,7 11 6 S 999,4 40 0,8
22.11.2017 00:00:00 13,7 12,4 11 6 S 1000,4 18 0,4
21.11.2017 23:00:00 14,0 12,2 21 11 SW 1001,2 40 0,0
21.11.2017 22:00:00 13,9 12,6 15 8 SW 1001,5 25 0,0
21.11.2017 21:00:00 14,1 12,6 15 8 SW 1001,6 50 0,0
21.11.2017 20:00:00 14,0 12,6 15 8 SW 1001,9 30 0,0
21.11.2017 19:00:00 13,9 12,5 15 8 SW 1002,6 50 0,0
21.11.2017 18:00:00 13,9 12,5 16 9 SW 1003,2 50 0,2
21.11.2017 17:00:00 13,5 12,3 15 8 S 1003,5 14 0,2
21.11.2017 16:00:00 13,3 12,2 16 9 S 1003,7 10 1,8
21.11.2017 15:00:00 13,2 12,2 13 7 S 1004,7 8 1,0
21.11.2017 14:00:00 12,9 11,8 13 7 S 1005,7 11 0,2
21.11.2017 13:00:00 12,6 11,0 16 9 S 1006,7 35 0,0
21.11.2017 12:00:00 12,4 10,4 16 9 S 1008,0 26 0,0
21.11.2017 11:00:00 11,9 9,7 15 8 S 1009,1 35 -
21.11.2017 10:00:00 11,4 9,9 11 6 S 1009,7 18 0,0
21.11.2017 09:00:00 11,3 10,4 5 3 S 1010,4 6 0,0
21.11.2017 08:00:00 11,7 10,6 11 6 S 1010,2 13 0,0
21.11.2017 07:00:00 12,0 10,8 9 5 SSW 1010,2 16 0,0
21.11.2017 06:00:00 12,4 11,0 5 3 SSW 1010,4 20 0,0
21.11.2017 05:00:00 13,0 11,4 5 3 SW 1010,4 22 0,0
21.11.2017 04:00:00 13,1 11,5 11 6 SW 1010,6 24 0,0
21.11.2017 03:00:00 12,8 12,1 11 6 SW 1011,0 4,4 0,0
21.11.2017 02:00:00 13,0 12,3 11 6 SW 1011,2 16 0,0
21.11.2017 01:00:00 12,8 12,3 13 7 SW 1011,7 3,2 0,0
21.11.2017 00:00:00 12,9 12,4 11 6 WSW 1011,7 27 0,2
20.11.2017 23:00:00 12,7 12,5 9 5 SW 1011,8 6 0,0
20.11.2017 22:00:00 12,6 12,4 18 10 WSW 1012,0 1,4 0,2
20.11.2017 21:00:00 12,7 12,4 18 10 WSW 1012,2 4,1 0,6
20.11.2017 20:00:00 12,7 12,3 15 8 WSW 1012,1 5 0,8
20.11.2017 19:00:00 12,6 12,4 16 9 WSW 1012,3 4,3 0,0
20.11.2017 18:00:00 12,5 12,3 15 8 WSW 1012,2 1,5 0,0
20.11.2017 17:00:00 12,5 12,3 13 7 WSW 1012,3 2,2 0,4
20.11.2017 16:00:00 12,5 12,3 16 9 WSW 1012,2 3,3 0,0
20.11.2017 15:00:00 12,6 12,3 11 6 WSW 1012,3 3,8 0,6
20.11.2017 14:00:00 12,6 12,2 16 9 W 1012,4 2,4 1,4
20.11.2017 13:00:00 12,7 12,3 13 7 W 1012,8 3,2 1,0
20.11.2017 12:00:00 12,7 12,3 21 11 WSW 1013,0 3,0 0,2
20.11.2017 11:00:00 12,5 12,0 18 10 WSW 1013,4 2,9 0,0
20.11.2017 10:00:00 12,3 11,6 18 10 W 1013,8 3,4 0,2
20.11.2017 09:00:00 12,0 11,4 18 10 WSW 1014,1 2,9 0,0
20.11.2017 08:00:00 12,2 11,2 16 9 WSW 1014,3 11 0,2
20.11.2017 07:00:00 11,9 11,1 15 8 WSW 1014,2 4,5 0,2
20.11.2017 06:00:00 11,4 10,7 11 6 SW 1014,5 3,6 0,4
20.11.2017 05:00:00 11,0 10,3 9 5 SW 1015,2 1,9 0,2
20.11.2017 04:00:00 10,9 9,9 15 8 SSW 1015,7 4,4 0,6
20.11.2017 03:00:00 9,9 9,2 9 5 S 1016,5 7 0,6
20.11.2017 02:00:00 9,5 8,6 11 6 S 1017,2 6 -
20.11.2017 01:00:00 9,8 8,3 13 7 SSE 1018,2 6 0,0
20.11.2017 00:00:00 9,8 8,4 11 6 SSE 1019,0 9 -
19.11.2017 23:00:00 9,1 8,3 11 6 SE 1020,0 5 0,0
19.11.2017 22:00:00 9,1 7,7 8 4 SW 1020,9 25 0,0
19.11.2017 21:00:00 8,8 7,2 9 5 S 1021,2 20 0,0
19.11.2017 20:00:00 8,6 6,7 13 7 S 1021,5 25 0,0
19.11.2017 19:00:00 8,4 6,3 11 6 S 1021,9 17 0,0
19.11.2017 18:00:00 8,3 5,9 8 4 SSE 1022,3 20 0,0
19.11.2017 17:00:00 8,3 5,6 9 5 SE 1022,5 50 0,0
19.11.2017 16:00:00 8,4 5,7 5 3 SSE 1023,1 30 0,0
19.11.2017 15:00:00 8,9 5,7 8 4 S 1023,5 40 0,0
19.11.2017 14:00:00 9,0 6,5 4 2 S 1023,7 35 0,0
19.11.2017 13:00:00 9,0 6,1 5 3 S 1024,3 40 0,0
19.11.2017 12:00:00 9,2 6,3 8 4 SSE 1024,6 29 0,0
19.11.2017 11:00:00 8,0 5,7 2 1 S 1024,9 40 0,0
19.11.2017 10:00:00 4,8 4,7 2 1 NW 1024,9 30 0,0
19.11.2017 09:00:00 3,7 3,6 0 0 N 1024,6 23 0,0
19.11.2017 08:00:00 3,4 3,3 0 0 N 1024,4 15 0,0
19.11.2017 07:00:00 3,2 3,1 2 1 S 1024,3 18 0,0
19.11.2017 06:00:00 3,1 3,0 0 0 N 1024,1 6 0,0
19.11.2017 05:00:00 2,8 2,6 0 0 N 1024,0 0,5 0,2
19.11.2017 04:00:00 3,8 3,6 0 0 N 1024,0 5 0,0
19.11.2017 03:00:00 3,8 3,7 0 0 N 1023,9 9 0,0
19.11.2017 02:00:00 4,2 4,0 0 0 N 1023,7 10 -
19.11.2017 01:00:00 4,4 4,2 4 2 W 1023,6 1,0 0,0
19.11.2017 00:00:00 4,4 4,2 4 2 SE 1023,3 0,2 0,0
18.11.2017 23:00:00 5,6 5,3 0 0 N 1023,0 16 0,0
18.11.2017 22:00:00 6,0 5,8 0 0 N 1023,1 5 0,0
18.11.2017 21:00:00 6,3 6,1 4 2 N 1022,8 8 0,0
18.11.2017 20:00:00 6,1 5,7 2 1 SSE 1022,7 14 0,0
18.11.2017 19:00:00 7,1 6,7 2 1 S 1022,6 10 0,0
18.11.2017 18:00:00 7,3 7,0 0 0 N 1022,4 23 0,0
18.11.2017 17:00:00 7,6 7,3 5 3 WNW 1022,3 9 0,6
18.11.2017 16:00:00 7,7 7,4 4 2 WNW 1022,3 4,5 1,0
18.11.2017 15:00:00 7,6 7,3 4 2 W 1022,3 3,9 0,6
18.11.2017 14:00:00 7,8 7,4 4 2 W 1022,5 2,5 0,8
18.11.2017 13:00:00 7,5 7,1 8 4 W 1022,8 2,8 1,0
18.11.2017 12:00:00 7,7 7,2 5 3 W 1022,8 4,6 1,8
18.11.2017 11:00:00 8,2 7,4 13 7 NNW 1023,2 5 2,2
18.11.2017 10:00:00 9,2 8,7 9 5 NW 1022,9 4,4 3,4
18.11.2017 09:00:00 9,8 9,3 13 7 NW 1022,8 5 3,6
18.11.2017 08:00:00 10,0 9,6 15 8 NW 1022,7 4,0 4,2
18.11.2017 07:00:00 9,3 8,8 11 6 SSW 1022,7 4,0 1,6
18.11.2017 06:00:00 8,7 8,3 9 5 SW 1023,2 2,4 1,0
18.11.2017 05:00:00 8,4 7,9 9 5 SW 1024,0 3,0 0,4
18.11.2017 04:00:00 8,0 7,4 9 5 SW 1024,5 9 0,2
18.11.2017 03:00:00 7,5 6,8 0 0 N 1025,2 6 0,2
18.11.2017 02:00:00 7,4 6,6 4 2 W 1026,0 10 0,0
18.11.2017 01:00:00 7,2 5,3 5 3 WSW 1026,5 19 0,0
18.11.2017 00:00:00 5,2 4,0 5 3 ESE 1027,0 29 0,0
17.11.2017 23:00:00 5,2 3,4 4 2 ESE 1027,4 40 0,0
17.11.2017 22:00:00 5,0 2,6 4 2 SE 1027,8 45 0,0
17.11.2017 21:00:00 5,8 2,2 0 0 N 1027,6 40 0,0
17.11.2017 20:00:00 7,0 2,7 4 2 WNW 1028,0 40 0,0
17.11.2017 19:00:00 6,7 2,8 2 1 ESE 1028,0 45 0,0
17.11.2017 18:00:00 7,4 2,1 8 4 WSW 1028,4 45 0,0
17.11.2017 17:00:00 7,1 2,6 0 0 N 1028,7 45 0,0
17.11.2017 16:00:00 7,7 3,1 4 2 W 1028,6 40 0,0
17.11.2017 15:00:00 8,5 3,7 2 1 W 1028,8 30 0,0
17.11.2017 14:00:00 8,0 4,3 4 2 SE 1029,0 27 0,0
17.11.2017 13:00:00 7,6 5,3 0 0 N 1029,6 30 0,0
17.11.2017 12:00:00 6,3 4,6 0 0 N 1030,7 35 0,0
17.11.2017 11:00:00 5,1 4,4 0 0 N 1031,1 26 0,0
17.11.2017 10:00:00 4,2 3,9 0 0 N 1030,8 30 0,0
17.11.2017 09:00:00 2,5 2,2 0 0 N 1030,6 30 0,2
17.11.2017 08:00:00 1,1 0,8 0 0 N 1030,7 21 0,0
17.11.2017 07:00:00 0,7 0,5 2 1 S 1030,3 28 0,0
17.11.2017 06:00:00 -0,7 -1,0 0 0 N 1030,4 20 0,0
17.11.2017 05:00:00 -0,7 -1,0 0 0 N 1030,4 19 0,0
17.11.2017 04:00:00 -0,9 -1,3 0 0 N 1030,6 24 0,0
17.11.2017 03:00:00 -0,2 -0,5 0 0 N 1030,6 20 0,0
17.11.2017 02:00:00 0,0 -0,3 0 0 N 1030,5 25 0,0
17.11.2017 01:00:00 -0,3 -0,7 4 2 N 1030,3 17 0,0
17.11.2017 00:00:00 0,0 -0,2 0 0 N 1030,3 14 0,0
16.11.2017 23:00:00 -0,9 -1,2 0 0 N 1030,2 15 0,0
16.11.2017 22:00:00 -1,3 -1,9 0 0 N 1029,9 18 0,0
16.11.2017 21:00:00 0,1 -0,2 0 0 N 1029,5 13 0,0
16.11.2017 20:00:00 0,6 0,1 0 0 N 1028,8 16 0,0
16.11.2017 19:00:00 1,4 0,6 0 0 N 1028,0 12 -
16.11.2017 18:00:00 3,1 2,4 0 0 N 1027,3 22 0,0
16.11.2017 17:00:00 5,0 2,0 2 1 N 1026,5 27 -
16.11.2017 16:00:00 7,8 2,8 9 5 NW 1025,7 24 0,0
16.11.2017 15:00:00 9,3 2,5 18 10 NNW 1024,7 26 0,0
16.11.2017 14:00:00 9,5 3,8 15 8 NW 1024,2 30 0,0
16.11.2017 13:00:00 9,7 5,6 13 7 NW 1023,9 21 0,0
16.11.2017 12:00:00 9,3 6,5 11 6 NNW 1023,2 25 0,2
16.11.2017 11:00:00 9,5 8,4 15 8 NW 1022,5 6 2,8
16.11.2017 10:00:00 10,9 10,0 11 6 SSW 1020,9 4,0 1,2
16.11.2017 09:00:00 10,3 9,1 9 5 SSW 1020,8 4,0 0,2
16.11.2017 08:00:00 10,1 8,5 9 5 SSE 1020,2 22 0,0
16.11.2017 07:00:00 9,7 8,3 5 3 S 1020,1 27 0,2
16.11.2017 06:00:00 10,2 8,9 8 4 S 1020,1 23 0,0
16.11.2017 05:00:00 9,5 8,7 5 3 S 1020,1 19 0,0

tt = temperature
td = dewpoint
ff = wind speed
dd = wind direction
ppp = reduced air pressure
vv = visibility
rr = precipitation

Next stations